Location: Adavinekkalam
(16.6301°N, 80.7229°E)
Time: 08:21:17
(UTC+00:00)

CZ-2D R/B - Pass Details

Date: 15 May 2026
Orbit: 790 x 841 km, 98.9° (Epoch: 6 June)

Event Time Altitude Azimuth Distance (km) Brightness Sun altitude
Rises 22:26:22 0° 342° (NNW) 3,377 5.5 -22.6°
Reaches altitude 10° 22:30:04 10° 316° (NW) 2,448 4.4 -21.8°
Enters shadow 22:30:51 12° 308° (NW) 2,332 4.3 -21.6°
